DECAYED

STARLINK-1862, 47149 (Decayed)

Orbit data source: Space-Track

STARLINK-1862, 47149 was a payload satellite owned by SpaceX/Seattle (US) in LEO that was launched on Wed, 25 Nov 2020 UTC via an FALCON 9 launch vehicle from the Air Force Eastern Test Range (AFETR). Payload-class satellites include a variety of spacecraft equipped with specific instruments for various scientific and technological missions. These include communications satellites like Starlink; space stations such as the ISS; scientific satellites like the Hubble; Earth observation satellites from companies like Planet Labs, Umbra, and HawkEye 360; GPS; miniature CubeSats for education and research; and military/defense satellites.

Not visible in the next 10 days
Identifier
47149, 2020-088AD
Orbit
Decayed
Country
Flag of USUS
Related business
Manufacturer
SpaceX/Seattle
Mission
Decayed Commercial Communications
Bus & Motor
STARLINK, Unknown motor
Mass
260 kg wet, ~248 kg dry
Launch date (UTC)
2020-11-25 (6 years ago)
Launch vehicle
FALCON 9
Launch site
Air Force Eastern Test Range (AFETR)
Object type
Payload
Rocket body
Debris
Shape & HBR
Box + 1 Pan, 10.1 m
Radar Cross Section
13.562 m², Large (>1 m²)

Expand to show TLE details & history
Last TLE update: 1 year ago

TLE from 1 year ago
0 STARLINK-1862
1 47149U 20088AD  25165.16967914  .10385543  12360-4  78618-3 0  9993
2 47149  53.0221  15.0118 0007680 274.0693 189.6695 16.39588131252343
Epoch: 2025-06-14T04:04Z
TLE epoch observation values (Epoch: 2025-06-14T04:04:20.277Z)
Latitude
51.05789°
Longitude
163.33636°
Altitude
177.851 km
Speed
7.803 km/s
True Right ascension
08h 28m 32s
True Declination
50° 52' 29"
Sunlit
Object was in daylight at epoch
Visualization orbit readout
Latitude
Unknown
Longitude
Unknown
Altitude
Unknown
Speed
Unknown
Apparent Right ascension
Unknown
Apparent Declination
Unknown
Sunlit
N/A
Visualization observer readout
Local Sidereal Time
21:23:34
Azimuth
Unknown
Elevation
Unknown
Doppler factor
Unknown
Orbital elements
Apogee altitude
172.217 km
Perigee altitude
162.163 km
Semi-major axis
6,545.327 km
Eccentricity
0.00077
Inclination
53.0221°
RAAN
15.0118°
Arg. of periapsis
274.0693°
True anomaly
189.65473°
Mean anomaly
189.6695°
Eccentric anomaly
189.66211°
Mean motion
4.0987 °/min
Orbital period
87.83 mins
BSTAR
0.00078618
Loading maneuver chart data...
Computing Atmospheric mass density...

Documentation

Showing up to 5 results
|